Parkersburg, WV

7:27 AM EDT on October 14, 2019 (GMT -0400)
Wood County Wilson

Weather History for KPKB - August, 2019

Change the Weather History Date:

Tuesday, August 6, 2019

  Actual Average Record
Temperature  
Mean Temperature 77 °F 74 °F  
Max Temperature 90 °F 85 °F 96 °F (1955)
Min Temperature 63 °F 64 °F 49 °F (1994)
Degree Days  
Heating Degree Days 0 0  
Month to date heating degree days 0 0  
Since 1 June heating degree days 16 20  
Since 1 July heating degree days 0 1  
Cooling Degree Days 12 9  
Month to date cooling degree days 67 54  
Year to date cooling degree days 764 621  
Since 1 June cooling degree days 619 537  
Growing Degree Days 26 (Base 50)    
Moisture  
Dew Point 64 °F    
Average Humidity 68    
Maximum Humidity 93    
Minimum Humidity 43    
Precipitation  
Precipitation 0.04 in 0.12 in 1.56 in (1995)
Month to date precipitation 0.05 0.73  
Year to date precipitation 29.49 25.91  
Sea Level Pressure  
Sea Level Pressure 29.88 in    
Wind  
Wind Speed 5 mph (SW)    
Max Wind Speed 17 mph    
Max Gust Speed 23 mph    
Visibility 9 miles    
Events Fog , Rain , Thunderstorm    
T = Trace of Precipitation, MM = Missing Value Source: NWS Daily Summary

Daily Weather History Graph

Daily Weather History Graph

Search for Another Location

Airport or City:

Astronomy

Aug. 06, 2019 Rise Set
Actual Time 6:30 AM EDT 8:32 PM EDT
Civil Twilight 6:00 AM EDT 9:02 PM EDT
Nautical Twilight 5:24 AM EDT 9:38 PM EDT
Astronomical Twilight 4:45 AM EDT 10:16 PM EDT
Moon 12:51 PM EDT (8/6) No Moon Set
Length of Visible Light 15h 01m
Length of Day
14h 02m
Waxing Crescent, 38% of the Moon is Illuminated
Aug 6
Waxing Crescent
Aug 7
First Quarter
Aug 15
Full
Aug 23
Last Quarter
Aug 30
New

Hourly Weather History & Observations

Time (EDT) Temp. Heat Index Dew Point Humidity Pressure Visibility Wind Dir Wind Speed Gust Speed Precip Events Conditions
12:53 AM 66.9 °F - 64.9 °F 93% 29.95 in 7.0 mi Calm Calm - N/A   Clear
1:53 AM 68.0 °F - 64.0 °F 87% 29.94 in 10.0 mi Calm Calm - N/A   Clear
2:53 AM 64.9 °F - 63.0 °F 93% 29.92 in 4.0 mi Calm Calm - N/A   Clear
3:53 AM 64.0 °F - 62.1 °F 93% 29.92 in 5.0 mi Calm Calm - N/A   Clear
4:53 AM 64.9 °F - 62.1 °F 90% 29.91 in 9.0 mi Calm Calm - N/A   Clear
5:53 AM 64.0 °F - 62.1 °F 93% 29.92 in 8.0 mi Calm Calm - N/A   Clear
6:53 AM 63.0 °F - 61.0 °F 93% 29.92 in 10.0 mi Calm Calm - N/A Fog Clear
7:53 AM 66.9 °F - 64.0 °F 90% 29.93 in 10.0 mi SE 3.5 mph - N/A   Clear
8:53 AM 72.0 °F - 64.9 °F 78% 29.93 in 10.0 mi SSW 4.6 mph - N/A   Clear
9:53 AM 77.0 °F - 66.0 °F 69% 29.92 in 10.0 mi Variable 4.6 mph - N/A   Clear
10:53 AM 81.0 °F 83.0 °F 66.0 °F 60% 29.92 in 10.0 mi South 5.8 mph - N/A   Clear
11:53 AM 84.9 °F 86.6 °F 64.9 °F 51% 29.91 in 10.0 mi SSW 8.1 mph - N/A   Clear
12:53 PM 88.0 °F 89.3 °F 64.0 °F 45% 29.88 in 10.0 mi West 4.6 mph - N/A   Scattered Clouds
1:53 PM 84.0 °F 84.9 °F 63.0 °F 49% 29.87 in 10.0 mi WSW 8.1 mph - N/A   Mostly Cloudy
2:53 PM 81.0 °F 82.5 °F 64.0 °F 56% 29.85 in 10.0 mi WSW 3.5 mph - 0.00 in Rain Light Rain
3:53 PM 88.0 °F 87.9 °F 61.0 °F 40% 29.83 in 10.0 mi WSW 8.1 mph 19.6 mph 0.00 in   Scattered Clouds
4:53 PM 88.0 °F 88.4 °F 62.1 °F 42% 29.82 in 10.0 mi WSW 9.2 mph 19.6 mph N/A   Scattered Clouds
5:53 PM 87.1 °F 87.8 °F 63.0 °F 44% 29.82 in 10.0 mi West 9.2 mph - N/A   Partly Cloudy
6:19 PM 82.9 °F 83.7 °F 62.1 °F 49% 29.85 in 10.0 mi SW 12.7 mph 19.6 mph N/A Thunderstorm Partly Cloudy
6:38 PM 82.0 °F 83.4 °F 64.0 °F 54% 29.85 in 10.0 mi WSW 8.1 mph 16.1 mph N/A   Partly Cloudy
6:53 PM 81.0 °F 82.5 °F 64.0 °F 56% 29.83 in 10.0 mi SSW 5.8 mph - N/A   Clear
7:53 PM 77.0 °F - 66.0 °F 69% 29.83 in 9.0 mi South 5.8 mph - 0.00 in Rain Light Rain
8:53 PM 73.9 °F - 64.9 °F 73% 29.83 in 10.0 mi SSW 4.6 mph - 0.00 in   Mostly Cloudy
9:53 PM 71.1 °F - 64.9 °F 81% 29.83 in 10.0 mi SSW 5.8 mph - N/A   Partly Cloudy
10:53 PM 73.0 °F - 64.9 °F 76% 29.83 in 10.0 mi SSW 9.2 mph - N/A   Scattered Clouds
11:53 PM 73.0 °F - 64.0 °F 73% 29.85 in 10.0 mi Variable 5.8 mph - N/A   Mostly Cloudy